RROCI-2

operational
NORAD ID: 59106 Int'l Des: 2024-043 Owner: SFSSC/ORISS Country: US
LEOCIRCULARRETROGRADESSO

RROCI-2について

説明を読み込み中...

リアルタイム位置

3D地球を読み込み中...

次回通過

高度履歴

Altitude vs Time

uPlot chart will show altitude changes over time

軌道要素

1 59106U 24043J 26062.16301399 .00003943 00000-0 32757-3 0 9998
2 59106 97.8264 194.2245 0006071 355.6220 4.4949 14.99321686108876
Epoch: Mar 3, 2026 • Age: 9 hours

現在のステータス

高度 582.6 km
速度 7.58 km/s
衛星直下点 81.60°N, 171.11°W
打ち上げ日 Mar 4, 2024
運用期間 1.9 years
タイプ other

技術仕様

分類 Payload
質量 19.00 kg
乾燥質量 19.00 kg
総質量 19.00 kg
長さ 0.30 m
直径 0.20 m
スパン 1.00 m
形状 Box+2 pan
製造者 ORISS
バスタイプ Cubesat 12U
フェーズステータス In Orbit
所有者/国 SFSSC/ORISS/US

大規模コンステレーション

Loading constellations...